Regional Weather Roundup
Issued by NWS Green Bay, WI

Home | Current Version | Previous Version | Text Only | Print | Product List | Glossary On
Versions: 1 2 3 4 5 6 7 8 9 10 11 12 13 14 15 16 17 18 19 20 21 22 23 24 25 26 27 28 29 30 31 32 33 34 35 36 37 38 39 40 41 42 43 44 45 46 47 48 49 50
000
ASUS43 KGRB 242111
RWRGRB

NORTH-CENTRAL AND NORTHEAST WISCONSIN REGIONAL WEATHER ROUNDUP
NATIONAL WEATHER SERVICE GREEN BAY WI
400 PM CDT SUN MAY 24 2015

WIZ005-009-010>012-018-019-242200-
NORTH CENTRAL WISCONSIN

CITY           SKY/WX    TMP DP  RH WIND       PRES   REMARKS
IRONWOOD       CLOUDY    72  46  40 N7        29.97F
MANITOWISH WTR CLOUDY    70  50  48 S10       30.02F
ARBOR VITAE    CLOUDY    67  53  60 SW15      30.04S
EAGLE RIVER    CLOUDY    70  48  45 S9        30.04S
LAND O LAKES   CLOUDY    75  43  31 S8        30.03F
RHINELANDER    LGT RAIN  62  55  77 S8        30.07F
PHILLIPS       DRIZZLE   61  56  82 SE7       30.03F
ANTIGO         LGT RAIN  58  56  91 S9        30.08F
TOMAHAWK       RAIN      59  56  89 CALM      30.06F
MERRILL        LGT RAIN  59  58  96 SE5       30.06F
$$

WIZ013-073-242200-
NORTHEAST WISCONSIN

CITY           SKY/WX    TMP DP  RH WIND       PRES   REMARKS
IRON MOUNTAIN  CLOUDY    73  49  42 S16       30.03S
MARINETTE      CLOUDY    64  52  63 SW16      30.08S
OCONTO         CLOUDY    62  56  82 S8        30.08F
$$

WIZ017-030-035>037-045-242200-
CENTRAL WISCONSIN

CITY           SKY/WX    TMP DP  RH WIND       PRES   REMARKS
MEDFORD        DRIZZLE   57  55  93 SE7       30.03F
WAUSAU         LGT RAIN  59  56  89 SE9       30.04F
MOSINEE        DRIZZLE   57  57 100 E8        30.06F
MARSHFIELD     LGT RAIN  60  56  86 SE14G21   30.01F
WISC RAPIDS    RAIN      58  55  90 SE10      30.04F FOG
STEVENS POINT  LGT RAIN  57  55  93 E10G16    30.05F
WAUPACA        LGT RAIN  62  59  89 E8        30.06F
SHAWANO        LGT RAIN  62  57  84 S5        30.08F
CLINTONVILLE   RAIN      61  55  82 SE5       30.07F
$$

WIZ038-039-048-051-242200-
FOX VALLEY

CITY           SKY/WX    TMP DP  RH WIND       PRES   REMARKS
NWS GREEN BAY  LGT RAIN  63  58  83 SE9       30.08F
APPLETON       LGT RAIN  61  57  88 SE8       30.07F
OSHKOSH        LGT RAIN  60  56  86 E8        30.05F FOG
FOND DU LAC    RAIN      60  56  86 SE12      30.05F FOG
$$

WIZ022-050-052-242200-
EAST CENTRAL WISCONSIN

CITY           SKY/WX    TMP DP  RH WIND       PRES   REMARKS
STURGEON BAY   CLOUDY    63  52  67 S10       30.11F
MANITOWOC      LGT RAIN  57  55  93 SE7       30.10F
SHEBOYGAN      LGT RAIN  59  56  89 E7        30.09F FOG
$$

LMZ563-521-522-541>543-242200-
LAKESHORE

STATION/POSITION TIME  TEMP    WIND        PRES    VSBY  WAVE
                       AIR SEA DIR/SP/G                  HT/PER
                 (UTC) (F)     (DEG/KT/KT) (MB)    (MI)  (FT/S)
SHEBOYGAN LKSHOR 2100   47      90/  3/  4 1019.4F
KEWAUNEE LKSHORE 2000   57     190/  6/  8 1019.2F
NORTHPORT PIER   2000   64     160/  3/  8 1019.0F
N MID LAKE BUOY  2050   42 36  190/ 12/ 12 1019.9F         1
SISTER BAY LKSHO 2017   67     200/ 11/ 14   N/A
CHAMBERS ISLAND  2000   65     200/  6/ 15 1018.6F
MENOMINEE LKSHOR 2000   67     200/ 12/ 17 1019.4F
$$



USA.gov is the U.S. government's official web portal to all federal, state and local government web resources and services.